Miscellaneous Local Product
Issued by NWS North Platte, NE

Home | Current Version | Previous Version | Graphics & Text | Print | Product List | Glossary On
Versions: 1 2 3 4 5 6 7 8 9 10 11 12 13 14 15 16 17 18 19 20 21 22 23 24 25 26 27 28 29 30 31 32 33 34 35 36 37 38 39 40 41 42 43 44 45 46 47 48 49 50
000
AXUS43 KLBF 281010
MISLBF


WESTERN AND NORTH CENTRAL NEBRASKA HOURLY WEATHER ROUNDUP
NATIONAL WEATHER SERVICE NORTH PLATTE NE
500 AM CDT SAT MAR 28 2015

***STATIONS NOT REPORTING VARIABLES SUCH AS SKY/WEATHER OR
PRESSURE ARE PROVIDED BY THE NEBRASKA DEPARTMENT OF
ROADS...RAWS...AND APRS NETWORKS...AND ARE NOT UNDER
NATIONAL WEATHER SERVICE QUALITY CONTROL***

...OBSERVATIONS IN AND NEAR THE EASTERN PANHANDLE OF NEBRASKA...

CITY           SKY/WX    TMP DP  RH WIND       PRES   REMARKS
PINE RIDGE     PTCLDY    30  26  85 CALM      29.95F
CHADRON        CLEAR     35  30  82 SW7       29.95F WCI  29
ALLIANCE       CLEAR     30  26  85 W7        29.97F WCI  23
SIDNEY         CLEAR     40  28  62 W10       30.00F WCI  33
WHITECLAY        N/A     32  28  86 E6          N/A  WCI  26
CRESCENT LAKE    N/A     40  31  71 CALM        N/A
BIG SPRINGS      N/A     39  33  78 SW5         N/A
$$

...OBSERVATIONS IN NORTH CENTRAL NEBRASKA...

CITY           SKY/WX    TMP DP  RH WIND       PRES   REMARKS
VALENTINE      CLEAR     27  24  89 W3        29.98S
THEDFORD       CLEAR     32  30  92 CALM      29.98R
AINSWORTH      CLEAR     35  29  80 NE7       29.97S WCI  29
O`NEILL        MOCLDY    33  29  88 S6        30.00S WCI  27
ORD            PTCLDY    23  19  85 CALM      29.99R
BROKEN BOW     CLEAR     33  30  88 N6        29.97R WCI  28
BROWNLEE         N/A     45  33  64 E6          N/A
VALENTINE NWR    N/A     32  31  97 CALM        N/A
SPRINGVIEW       N/A     28  26  90 CALM        N/A
BREWSTER         N/A     32  30  93 CALM        N/A
ROSE             N/A     36  32  85 CALM        N/A
NEWPORT          N/A     34  32  90 CALM        N/A
SARGENT          N/A     27  24  89 CALM        N/A
COMSTOCK         N/A     33  29  87 CALM        N/A
EWING            N/A     30  27  90 CALM        N/A
$$

...OBSERVATIONS IN SOUTHWEST NEBRASKA AND FAR NORTHEAST COLORADO...

CITY           SKY/WX    TMP DP  RH WIND       PRES   REMARKS
WRAY           FAIR      39  32  76 W5        30.00R
HOLYOKE        FAIR      41  32  70 W9        29.99F
IMPERIAL         N/A     34  27  75 CALM      29.97F
OGALLALA       CLEAR     34  31  88 W8        29.98R WCI  27
NORTH PLATTE   CLEAR     30  29  96 NW6       29.96S WCI  24
MCCOOK         PTCLDY    36  31  82 SW5       29.95F WCI  32
LEXINGTON      CLEAR     29  26  87 CALM      29.97S
PAXTON           N/A     41  35  77 CALM        N/A
SUTHERLAND       N/A     35  32  88 W7          N/A  WCI  29
BRADY            N/A     32  28  84 CALM        N/A
GOTHENBURG       N/A     35  28  76 N3          N/A
CALLAWAY         N/A     32  28  86 CALM        N/A
$$

...NORTH PLATTE AREA...

CITY           SKY/WX    TMP DP  RH WIND       PRES   REMARKS
AIRPORT        CLEAR     30  29  96 NW6       29.96S WCI  24
DOWNTOWN         N/A     36  30  80 CALM        N/A
$$

...SOME WEATHER OBSERVATIONS FROM AROUND THE REGION...

CITY           SKY/WX    TMP DP  RH WIND       PRES   REMARKS
DENVER         CLEAR     48  30  49 SW13      30.07F
LARAMIE        CLEAR     34  22  61 W12       30.14F WCI  25
CHEYENNE       CLEAR     46  24  42 W15       30.08F
SCOTTSBLUFF    CLEAR     36  29  75 N5        29.99F WCI  32
RAPID CITY     PTCLDY    40  31  70 W5        29.93F
PIERRE         CLEAR     24  22  91 E5        29.98S WCI  18
WINNER         CLOUDY    35  29  78 SE5       29.98S WCI  31
SIOUX FALLS    CLOUDY    30  24  78 SE10      30.09R WCI  21
OMAHA          MOCLDY    34  27  75 SE10      30.11S WCI  26
GRAND ISLAND   PTCLDY    29  24  82 E5        30.02S WCI  24
KANSAS CITY    CLOUDY    37  25  61 E10       30.10S WCI  30
WICHITA        MOCLDY    42  30  62 SE8       29.99S
HAYS           CLEAR     36  27  69 CALM      29.93F
LIBERAL        CLEAR     50  34  53 W15       30.01S
GOODLAND       CLEAR     43  34  70 W7        30.00S
$$



USA.gov is the U.S. government's official web portal to all federal, state and local government web resources and services.